Regional Weather Roundup
Issued by NWS

Home | Current Version | Previous Version | Text Only | Print | Product List | Glossary On
Versions: 1 2 3 4 5 6 7 8 9 10 11 12 13 14 15 16 17 18 19 20 21 22 23 24 25 26 27 28 29 30 31 32 33 34 35 36 37 38 39 40 41 42 43 44 45 46 47 48 49 50
440
ASUS43 KDMX 260903
RWRIA

WEATHER ROUNDUP FOR IOWA
NATIONAL WEATHER SERVICE DES MOINES IA
400 AM CDT MON SEP 26 2016

NOTE: "FAIR" INDICATES FEW OR NO CLOUDS BELOW 12,000 FEET WITH NO
SIGNIFICANT WEATHER AND/OR OBSTRUCTIONS TO VISIBILITY.

* - THESE STATIONS ARE NOT NWS STATIONS...THUS NOT UNDER NWS
QUALITY CONTROL.  THEY ALSO DO NOT REPORT WEATHER SUCH
AS PRECIPITATION OR FOG.

IAZ001>003-012>014-020>022-031>034-043>046-261000-
   NORTHWEST IOWA

CITY           SKY/WX    TMP DP  RH WIND       PRES   REMARKS
CARROLL *      CLEAR     48  41  76 W8        30.16S
CHEROKEE *     CLEAR     44  40  86 W5        30.15F
DENISON *      CLEAR     45  41  87 CALM      30.17S
LE MARS *      CLEAR     45  39  81 W6        30.18S
ORANGE CITY *  CLEAR     45  39  81 W7        30.16S
SHELDON *      CLEAR     46  37  71 W9G15     30.12F
SIOUX CITY     CLEAR     48  39  71 NW6       30.18F
SPENCER        CLEAR     46  39  76 W10       30.11F
STORM LAKE *   CLEAR     45  39  81 W12       30.15F
$$

IAZ055>058-069>071-079>083-090>094-261000-
   SOUTHWEST IOWA

CITY           SKY/WX    TMP DP  RH WIND       PRES   REMARKS
ATLANTIC *     CLEAR     46  43  87 S3        30.19F
AUDUBON *      CLEAR     48  41  76 CALM      30.19S
CLARINDA *       N/A     46  45  93 MISG      30.22F
COUNCIL BLFS * CLEAR     50  39  66 W7        30.21S
CRESTON *      CLEAR     46  43  87 W7        30.20S
HARLAN  *      CLEAR     46  41  81 W7        30.22F
LAMONI         CLEAR     50  44  80 W9        30.18S
RED OAK *      CLEAR     48  43  81 W6        30.21S
SHENANDOAH *   PTCLDY    48  43  81 SW6       30.23S
$$

IAZ047>049-059>061-072>074-084-261000-
   CENTRAL IOWA

CITY           SKY/WX    TMP DP  RH WIND       PRES   REMARKS
AMES           CLEAR     50  45  83 W12       30.12F
ANKENY *         N/A    N/A N/A N/A MISG        N/A
BOONE *        CLEAR     50  41  71 W10       30.12S
CHARITON *       N/A     48  45  87 W9        30.15S
DES MOINES     CLEAR     52  42  69 W7        30.14S
GRINNELL*      CLEAR     50  45  81 W7        30.11F
KNOXVILLE *    CLEAR     48  45  87 W8        30.13R
MARSHALLTOWN   CLEAR     51  44  77 W12       30.08F
NEWTON *       CLEAR     48  45  87 W8        30.11F
PELLA *        CLEAR     54  45  71 W10G16    30.14S
PERRY *          N/A     47  44  89 W7        30.15S
$$

IAZ004>006-015-016-023>025-035-036-261000-
   NORTH CENTRAL IOWA

CITY           SKY/WX    TMP DP  RH WIND       PRES   REMARKS
ALGONA *       CLEAR     48  41  76 W12       30.09F
CLARION *      CLEAR     50  43  76 W8        30.09S
ESTHERVILLE    CLEAR     49  39  68 W10       30.08F
FORT DODGE *   CLEAR     48  39  71 W9        30.11R
MASON CITY     CLEAR     50  40  68 W13       30.06F
FOREST CITY *    N/A     50  39  66 W10       30.05F
WEBSTER CITY * CLEAR     48  43  81 W10       30.09S
IOWA FALLS *     N/A     49  43  80 W9        30.09F
$$

IAZ007>011-017>019-026>030-037>042-050>054-066-261000-
   NORTHEAST IOWA

CITY           SKY/WX    TMP DP  RH WIND       PRES   REMARKS
CEDAR RAPIDS   CLEAR     51  48  89 W9        30.06F
CHARLES CITY * CLEAR     50  45  81 W8G15     30.04S
CLINTON *      CLOUDY    57  50  77 W9        30.04F
DECORAH *      CLEAR     50  45  81 VRB6G14   29.99S
DUBUQUE        PTCLDY    52  47  83 W8        30.02F
MONTICELLO *   CLEAR     52  46  82 W6        30.03F
OELWEIN *      CLEAR     50  45  81 W8        30.03F
WATERLOO       CLEAR     52  44  74 W13       30.04F
$$

IAZ064-065-067-068-078-261000-
   EAST CENTRAL IOWA

CITY           SKY/WX    TMP DP  RH WIND       PRES   REMARKS
DAVENPORT      CLOUDY    57  48  72 W8        30.05F
IOWA CITY      CLEAR     51  47  86 W7        30.09S
MUSCATINE *    CLOUDY    57  48  72 W8        30.08S
QUAD CITIES    CLOUDY    60  49  66 W10       30.05S
$$

IAZ062-063-075>077-085>089-095>099-261000-
   SOUTHEAST IOWA

CITY           SKY/WX    TMP DP  RH WIND       PRES   REMARKS
BURLINGTON     CLOUDY    57  52  83 W7        30.10S
FAIRFIELD *    CLEAR     52  46  82 W7        30.11S
FORT MADISON * CLOUDY    57  52  82 W6        30.12R
KEOKUK *       CLOUDY    59  52  77 W8        30.11R
OSKALOOSA *      N/A     47  45  90 W7        30.12S
OTTUMWA        CLEAR     49  45  86 W8        30.12F
WASHINGTON *     N/A    N/A N/A N/A MISG        N/A
$$

ABBREVIATIONS USED IN REMARKS
   TC - TEMPERATURES IN CELSIUS
  WCI - WIND CHILL INDEX
   HX - HEAT INDEX
  VSB - VISIBILITY
$$





USA.gov is the U.S. government's official web portal to all federal, state and local government web resources and services.